"Pseudo-MPEC" for P22orV1

Created 2026 Jul 23 6:35:10 UT using Find_Orb

Click here for an explanation of pseudo-MPECs

 
 Astrometry: 
     P22orV1*0C2026 07 19.41237720 15 00.714-04 17 19.39   ~7JC5 21.72wXNEOCPF52
     P22orV1 0C2026 07 19.42262320 15 01.747-04 17 41.23   ~7JC5 21.79wXNEOCPF52
     P22orV1 0C2026 07 19.43289020 15 02.796-04 18 03.34   ~7JC5 21.83wXNEOCPF52
     P22orV1 0C2026 07 19.44317920 15 03.839-04 18 25.18   ~7JC5 21.88wXNEOCPF52
     P22orV1 0C2026 07 19.51616720 15 11.279-04 21 01.35   ~7JGo 21.50GVNEOCPF52
     P22orV1 0C2026 07 19.51680120 15 11.347-04 21 02.73   ~7JGo 21.24GVNEOCPF52
     P22orV1 KC2026 07 20.19787320 16 31.04 -04 45 42.3    ~7K55 21.8 GVNEOCPH21
     P22orV1 KC2026 07 20.20082120 16 31.36 -04 45 48.6    ~7K55 21.8 GVNEOCPH21
     P22orV1 3C2026 07 20.39290020 16 53.550-04 52 38.21   ~7KCK 21.44GVNEOCPT14
     P22orV1 3C2026 07 20.39387220 16 53.650-04 52 40.34   ~7KCK 21.23GVNEOCPT14
     P22orV1 3C2026 07 20.39485220 16 53.750-04 52 42.45   ~7KCK 21.25GVNEOCPT14
     P22orV1 KC2026 07 22.25935920 20 28.87 -06 02 00.8    ~7M6Z 21.3 GVNEOCPH21
     P22orV1 KC2026 07 22.26239820 20 29.17 -06 02 07.5    ~7M6Z 21.4 GVNEOCPH21
     P22orV1 1C2026 07 22.39867220 20 45.705-06 07 06.98   ~7MDZ 21.25GVNEOCPT12
     P22orV1 1C2026 07 22.39986920 20 45.826-06 07 09.67   ~7MDZ 22.16GVNEOCPT12
     P22orV1 1C2026 07 22.40106720 20 45.956-06 07 12.48   ~7MDZ 21.58GVNEOCPT12

Station data:
(F52) Pan-STARRS 2, Haleakala  (N20.707382 W156.255910)  US/Hawaii.
   Observers J. Herman, T. Lowe, P. Minguez, A. Schultz, I. Smith. Measurers
   K. Chambers, T. de Boer, J. Fairlamb, H. Gao, M. Huber, C.-C. Lin, E.
   Magnier, Y. Ramanjooloo, R. Wainscoat, R. Weryk. 1.8-m Ritchey-Chrétien +
   CCD.
(H21) Astronomical Research Observatory, Westfield  (N39.483054 W87.968270)
   US/Illinois.  Observer R. Holmes. Measurers S. Foglia, L. Buzzi, T.
   Linder, R. Holmes. 0.40-m f/5.32 astrograph + CCD.
(T12) Mauna Kea-UH/Tholen NEO Follow-Up (2.24-m)  (N19.822991 W155.469434)
   US/Hawaii.  Observer R. Weryk. 2.24-m f/10.1 University of Hawaii
   reflector.
(T14) Mauna Kea-UH/Tholen NEO Follow-Up (CFHT)  (N19.825252 W155.468876)
   US/Hawaii.  Observer R. Weryk. 3.6-m Canada-France-Hawaii Telescope.

Orbital elements:  P22orV1
   Perihelion 2026 Jul 22.088563 +/- 0.0405 TT =  2:07:31.8 (JD 2461243.588563)
Epoch 2026 Jul 22.0 TT = JDT 2461243.5   Earth MOID: 0.2612   Ma: 0.0528
M 359.978876024 +/- 0.009           (J2000 ecliptic)             AutoNEOCP
n   0.238519366 +/- 0.00233         Peri.  165.420831 +/- 0.039
a   2.575057617 +/- 0.0168          Node   134.684658 +/- 0.0043
e   0.50576284 +/- 0.00278          Incl.   10.894637 +/- 0.042
P   4.13219                H 23.35  G  0.15   U  8.7
q 1.272689153 +/- 0.00113    Q 3.877426080 +/- 0.0324
From 16 observations 2026 July 19-22; mean residual 0".08
Residuals in arcseconds: 
260719 F52  .09+  .05-    260720 H21  .04-  .01+    260722 H21  .29-  .00     
260719 F52  .07-  .05+    260720 H21  .11+  .14+    260722 T12  .01+  .01+    
260719 F52  .00   .08-    260720 T14  .00   .01-    260722 T12  .04-  .04+    
260719 F52  .05-  .10+    260720 T14  .00   .02-    260722 T12  .05+  .04-    
260719 F52  .00   .01+    260720 T14  .01-  .02+    
260719 F52  .04+  .02-    260722 H21  .01+  .18-    

Ephemerides (geocentric):
Date (UTC) HH   RA             Dec           delta  r     elong  mag " sig PA
---- --------  ------------   ------------  ------ ------ -----  --- --------
2026 07 23 07  20 22 29.227   -06 40 53.15  .26294 1.2728 166.2 21.7 .073  98
2026 07 23 08  20 22 34.097   -06 42 29.05  .26291 1.2728 166.2 21.7 .074  96
2026 07 23 09  20 22 38.968   -06 44 05.02  .26289 1.2728 166.2 21.7 .075  93
2026 07 23 10  20 22 43.840   -06 45 41.04  .26286 1.2728 166.3 21.7 .077  91
2026 07 23 11  20 22 48.713   -06 47 17.12  .26284 1.2728 166.3 21.7 .078  89
2026 07 23 12  20 22 53.586   -06 48 53.27  .26281 1.2728 166.4 21.7 .080  87
2026 07 23 13  20 22 58.461   -06 50 29.47  .26279 1.2728 166.4 21.7 .082  85
2026 07 23 14  20 23 03.336   -06 52 05.73  .26276 1.2728 166.4 21.6 .084  83
2026 07 23 15  20 23 08.213   -06 53 42.04  .26274 1.2728 166.5 21.6 .086  81
2026 07 23 16  20 23 13.090   -06 55 18.42  .26272 1.2728 166.5 21.6 .089  79
2026 07 23 17  20 23 17.968   -06 56 54.85  .26269 1.2728 166.6 21.6 .091  77
2026 07 23 18  20 23 22.847   -06 58 31.34  .26267 1.2728 166.6 21.6 .094  75
2026 07 23 19  20 23 27.727   -07 00 07.88  .26265 1.2728 166.6 21.6 .096  74
2026 07 23 20  20 23 32.608   -07 01 44.49  .26262 1.2728 166.7 21.6 .099  72
2026 07 23 21  20 23 37.490   -07 03 21.14  .26260 1.2728 166.7 21.6 .102  71
2026 07 23 22  20 23 42.372   -07 04 57.86  .26258 1.2728 166.8 21.6 .105  69
2026 07 23 23  20 23 47.256   -07 06 34.63  .26256 1.2729 166.8 21.6 .108  68
2026 07 24 00  20 23 52.140   -07 08 11.45  .26253 1.2729 166.8 21.6 .111  67
2026 07 24 01  20 23 57.025   -07 09 48.33  .26251 1.2729 166.9 21.6 .115  65
2026 07 24 02  20 24 01.911   -07 11 25.26  .26249 1.2729 166.9 21.6 .118  64
2026 07 24 03  20 24 06.798   -07 13 02.25  .26247 1.2729 167.0 21.6 .122  63
2026 07 24 04  20 24 11.686   -07 14 39.29  .26245 1.2729 167.0 21.6 .125  62
2026 07 24 05  20 24 16.575   -07 16 16.39  .26243 1.2729 167.0 21.6 .129  61
2026 07 24 06  20 24 21.464   -07 17 53.54  .26241 1.2729 167.1 21.6 .133  60
2026 07 24 07  20 24 26.354   -07 19 30.74  .26239 1.2729 167.1 21.6 .136  59
2026 07 24 08  20 24 31.246   -07 21 07.99  .26237 1.2729 167.1 21.6 .140  58
2026 07 24 09  20 24 36.138   -07 22 45.30  .26235 1.2729 167.2 21.6 .144  57
2026 07 24 10  20 24 41.031   -07 24 22.66  .26233 1.2729 167.2 21.6 .148  57
2026 07 24 11  20 24 45.924   -07 26 00.07  .26231 1.2729 167.3 21.6 .152  56
2026 07 24 12  20 24 50.819   -07 27 37.53  .26229 1.2730 167.3 21.6 .157  55
2026 07 24 13  20 24 55.714   -07 29 15.04  .26227 1.2730 167.3 21.6 .161  54
2026 07 24 14  20 25 00.610   -07 30 52.61  .26226 1.2730 167.4 21.6 .165  54
2026 07 24 15  20 25 05.507   -07 32 30.22  .26224 1.2730 167.4 21.6 .170  53
2026 07 24 16  20 25 10.405   -07 34 07.88  .26222 1.2730 167.5 21.6 .174  52
2026 07 24 17  20 25 15.304   -07 35 45.60  .26220 1.2730 167.5 21.6 .178  52
2026 07 24 18  20 25 20.203   -07 37 23.36  .26219 1.2730 167.5 21.6 .183  51
2026 07 24 19  20 25 25.103   -07 39 01.17  .26217 1.2730 167.6 21.6 .188  51
2026 07 24 20  20 25 30.005   -07 40 39.04  .26215 1.2730 167.6 21.6 .192  50
2026 07 24 21  20 25 34.906   -07 42 16.95  .26214 1.2730 167.7 21.6 .197  50
2026 07 24 22  20 25 39.809   -07 43 54.90  .26212 1.2731 167.7 21.6 .202  49
2026 07 24 23  20 25 44.713   -07 45 32.91  .26210 1.2731 167.7 21.6 .207  49
2026 07 25 00  20 25 49.617   -07 47 10.96  .26209 1.2731 167.8 21.6 .212  48
2026 07 25 01  20 25 54.522   -07 48 49.07  .26207 1.2731 167.8 21.6 .217  48
2026 07 25 02  20 25 59.428   -07 50 27.21  .26206 1.2731 167.9 21.6 .222  48
2026 07 25 03  20 26 04.334   -07 52 05.41  .26204 1.2731 167.9 21.6 .227  47
2026 07 25 04  20 26 09.242   -07 53 43.65  .26203 1.2731 167.9 21.6 .232  47
2026 07 25 05  20 26 14.150   -07 55 21.94  .26201 1.2731 168.0 21.6 .237  47
2026 07 25 06  20 26 19.059   -07 57 00.27  .26200 1.2732 168.0 21.6 .242  46